Flag for Italy

Past Weather in Turin, Italy — Yesterday and Last 2 Weeks

Now
59 °F

Partly sunny.


Feels Like: 60 °F
Forecast: 68 / 51 °F
Wind: 3 mph from Northwest

Location: Torino / Bric Della Croce
Current Time: Sep 25, 2020 at 12:53:17 pm
Latest Report: Sep 25, 2020 at 11:55 am
Visibility: N/A
Pressure29.36 "Hg
Humidity: 45%
Dew Point: 37 °F
Location of TurinLocation

Past Weather in Turin — Graph

°F

Turin Temperature Yesterday

Maximum temperature yesterday: 66 °F (at 11:55 am)
Minimum temperature yesterday: 61 °F (at 5:55 am)
Average temperature yesterday: 63 °F

High & Low Weather Summary for the Past Weeks

 TemperatureHumidityPressure
High81 °F (Sep 14, 5:55 pm)100% (Sep 11, 1:55 am)30.39 "Hg (Sep 11, 1:55 am)
Low55 °F (Sep 25, 9:55 am)34% (Sep 17, 7:55 pm)29.42 "Hg (Sep 25, 10:55 am)
Average68 °F84%30.09 "Hg
* Reported Sep 10 10:55 am — Sep 25 10:55 am, Turin. Weather by CustomWeather, © 2020

Note: Actual official high and low records may vary slightly from our data, if they occured in-between our weather recording intervals... More about our weather records

Turin Weather History for the Previous 24 Hours

Scroll right to see more
 ConditionsComfort  
Time TempWeatherWind HumidityBarometerVisibility
10:55 am
Fri, Sep 25
57 °FPartly sunny.6 mph51%29.42 "HgN/A
9:55 am55 °FPartly sunny.No wind67%29.45 "HgN/A
8:55 am59 °FFog.No wind100%29.47 "Hg0 mi
7:55 am59 °FFog.No wind100%29.50 "Hg0 mi
6:55 am59 °FFog.No wind100%29.53 "Hg0 mi
5:55 am59 °FFog.No wind100%29.53 "Hg0 mi
4:55 am59 °FFog.No wind100%29.56 "Hg0 mi
3:55 am59 °FFog.No wind100%29.59 "Hg0 mi
2:55 am59 °FFog.No wind100%29.62 "Hg0 mi
1:55 am59 °FFog.No wind100%29.65 "Hg0 mi
12:55 am61 °FFog.No wind100%29.65 "Hg0 mi
11:55 pm
Thu, Sep 24
61 °FFog.No wind100%29.68 "Hg0 mi
10:55 pm61 °FFog.7 mph100%29.68 "Hg1 mi
9:55 pm63 °FPassing clouds.6 mph100%29.71 "HgN/A
8:55 pm63 °FPassing clouds.3 mph100%29.74 "HgN/A
7:55 pm63 °FPassing clouds.3 mph100%29.77 "HgN/A
6:55 pm64 °FScattered clouds.7 mph100%29.77 "HgN/A
5:55 pm64 °FScattered clouds.3 mph100%29.77 "HgN/A
4:55 pm66 °FScattered clouds.3 mph100%29.83 "HgN/A
3:55 pm66 °FPartly sunny.No wind94%29.83 "HgN/A
2:55 pm66 °FPartly sunny.3 mph100%29.89 "HgN/A
1:55 pm64 °FScattered clouds.3 mph100%29.89 "HgN/A
12:55 pm64 °FScattered clouds.3 mph100%29.92 "HgN/A
Weather by CustomWeather, © 2020

See weather overview